QPF
0.00 0.00 0.00 0.00 0.00 0.00 0.00 0.00 0.00 0.00 0.00 0.00 0.00 0.00 0.00 0.00 0.00 0.00 0.00 0.00 0.00 0.00 0.00 0.00 0.00 0.00 0.00 0.00 0.00 0.00 0.00 0.00 0.00 0.00 0.00 0.00 0.00 0.00 0.00 0.00 0.00 0.00 0.00
0.00 0.00 0.00 0.00 0.00 0.00 0.00 0.00 0.00 0.00 0.00 0.00 0.00 0.00 0.00 0.00 0.00 0.00 0.00 0.00 0.00 0.00 0.00 0.00 0.00 0.00 0.00 0.00 0.00 0.00 0.00 0.00 0.00 0.00 0.00 0.00 0.00 0.00 0.00 0.00 0.00 0.00 0.00
0.00 0.00 0.00 0.00 0.00 0.00 0.00 0.00 0.00 0.00 0.00 0.00 0.00 0.00 0.00 0.00 0.00 0.00 0.00 0.00 0.00 0.00 0.00 0.00 0.00 0.00 0.00 0.00 0.00 0.00 0.00 0.00 0.00 0.00 0.00 0.00 0.00 0.00 0.00 0.00 0.00 0.00 0.00
0.00 0.00 0.00 0.00 0.00 0.00 0.00 0.00 0.00 0.00 0.00 0.00 0.00 0.00 0.00 0.00 0.00 0.00 0.00 0.00 0.00 0.00 0.00 0.00 0.00 0.00 0.00 0.00 0.00 0.00 0.00 0.00 0.00 0.01 0.02 0.02 0.02 0.00 0.00 0.00 0.00 0.00 0.00
0.00 0.00 0.00 0.00 0.00 0.00 0.00 0.00 0.00 0.00 0.00 0.00 0.00 0.00 0.00 0.00 0.00 0.00 0.00 0.00 0.00 0.00 0.00 0.00 0.00 0.00 0.00 0.00 0.00 0.00 0.00 0.01 0.03 0.06 0.07 0.04 0.01 0.00 0.00 0.00 0.00 0.00 0.00
0.00 0.00 0.00 0.00 0.00 0.00 0.00 0.00 0.00 0.00 0.00 0.00 0.00 0.00 0.00 0.00 0.00 0.00 0.00 0.00 0.00 0.00 0.00 0.00 0.00 0.00 0.00 0.00 0.01 0.01 0.02 0.05 0.08 0.10 0.05 0.01 0.00 0.00 0.01 0.01 0.02 0.03 0.02
0.00 0.00 0.00 0.00 0.00 0.00 0.00 0.00 0.00 0.00 0.00 0.00 0.00 0.00 0.00 0.00 0.00 0.00 0.00 0.00 0.00 0.00 0.00 0.00 0.00 0.00 0.00 0.00 0.00 0.02 0.03 0.06 0.07 0.04 0.01 0.00 0.01 0.01 0.04 0.05 0.03 0.03 0.02
0.00 0.00 0.00 0.00 0.00 0.00 0.00 0.00 0.00 0.00 0.00 0.00 0.00 0.00 0.00 0.00 0.00 0.00 0.00 0.00 0.00 0.00 0.00 0.00 0.00 0.00 0.00 0.01 0.01 0.02 0.03 0.03 0.01 0.00 0.01 0.01 0.02 0.02 0.02 0.02 0.02 0.02 0.01
0.00 0.00 0.00 0.00 0.00 0.00 0.00 0.00 0.00 0.00 0.00 0.00 0.00 0.00 0.00 0.00 0.00 0.00 0.00 0.00 0.00 0.00 0.00 0.00 0.00 0.01 0.01 0.03 0.05 0.08 0.04 0.00 0.00 0.01 0.02 0.01 0.01 0.01 0.01 0.04 0.06 0.06 0.03
0.00 0.00 0.00 0.00 0.00 0.00 0.00 0.00 0.00 0.00 0.00 0.00 0.00 0.00 0.00 0.00 0.00 0.00 0.00 0.00 0.00 0.00 0.00 0.00 0.01 0.01 0.02 0.06 0.07 0.05 0.01 0.00 0.01 0.00 0.00 0.00 0.00 0.00 0.01 0.04 0.09 0.11 0.07
0.00 0.00 0.00 0.00 0.00 0.00 0.00 0.00 0.00 0.00 0.00 0.00 0.00 0.00 0.00 0.00 0.00 0.00 0.00 0.00 0.00 0.00 0.00 0.00 0.00 0.02 0.06 0.06 0.02 0.00 0.01 0.01 0.00 0.00 0.00 0.00 0.00 0.00 0.00 0.01 0.04 0.12 0.14
0.00 0.00 0.00 0.00 0.00 0.00 0.00 0.00 0.00 0.00 0.00 0.00 0.00 0.00 0.00 0.00 0.00 0.00 0.00 0.01 0.01 0.01 0.01 0.01 0.02 0.05 0.04 0.01 0.00 0.00 0.01 0.01 0.00 0.00 0.00 0.00 0.01 0.01 0.00 0.01 0.01 0.03 0.07
0.00 0.00 0.00 0.00 0.00 0.00 0.00 0.00 0.00 0.00 0.00 0.00 0.00 0.00 0.00 0.00 0.00 0.00 0.00 0.01 0.02 0.02 0.02 0.03 0.04 0.03 0.01 0.00 0.00 0.00 0.00 0.00 0.01 0.02 0.02 0.01 0.01 0.01 0.01 0.01 0.01 0.01 0.01
0.00 0.00 0.00 0.00 0.00 0.00 0.00 0.00 0.00 0.00 0.00 0.00 0.00 0.00 0.00 0.00 0.00 0.00 0.00 0.00 0.01 0.02 0.02 0.03 0.01 0.00 0.00 0.00 0.00 0.00 0.00 0.00 0.03 0.04 0.03 0.01 0.01 0.01 0.02 0.03 0.03 0.02 0.02
0.00 0.00 0.00 0.00 0.00 0.00 0.00 0.00 0.00 0.00 0.00 0.00 0.00 0.00 0.00 0.00 0.00 0.01 0.01 0.01 0.01 0.02 0.01 0.00 0.00 0.00 0.00 0.00 0.00 0.00 0.00 0.01 0.02 0.02 0.02 0.02 0.01 0.01 0.01 0.02 0.04 0.04 0.04
0.00 0.00 0.00 0.00 0.00 0.00 0.00 0.00 0.00 0.00 0.00 0.00 0.00 0.00 0.00 0.00 0.00 0.01 0.01 0.02 0.02 0.01 0.01 0.00 0.00 0.00 0.00 0.00 0.00 0.00 0.00 0.01 0.02 0.02 0.02 0.02 0.03 0.03 0.02 0.01 0.03 0.05 0.05
0.00 0.00 0.00 0.00 0.00 0.00 0.00 0.00 0.00 0.00 0.00 0.00 0.00 0.00 0.00 0.00 0.00 0.01 0.01 0.01 0.01 0.00 0.00 0.00 0.00 0.00 0.00 0.00 0.01 0.01 0.01 0.01 0.01 0.02 0.02 0.03 0.03 0.03 0.03 0.02 0.03 0.03 0.03
0.00 0.00 0.00 0.00 0.00 0.00 0.00 0.00 0.00 0.00 0.00 0.00 0.00 0.00 0.00 0.00 0.00 0.01 0.01 0.00 0.00 0.00 0.00 0.00 0.00 0.00 0.00 0.01 0.02 0.02 0.02 0.01 0.01 0.02 0.02 0.03 0.03 0.03 0.03 0.03 0.04 0.04 0.04
0.00 0.00 0.00 0.00 0.00 0.00 0.00 0.00 0.00 0.00 0.00 0.00 0.00 0.00 0.00 0.00 0.00 0.00 0.00 0.00 0.00 0.00 0.00 0.00 0.00 0.00 0.01 0.02 0.02 0.02 0.02 0.02 0.02 0.02 0.03 0.03 0.04 0.04 0.03 0.03 0.04 0.04 0.03
0.00 0.00 0.00 0.00 0.00 0.00 0.00 0.00 0.00 0.00 0.00 0.00 0.00 0.00 0.00 0.00 0.00 0.00 0.00 0.00 0.00 0.00 0.00 0.00 0.00 0.01 0.02 0.02 0.03 0.02 0.02 0.01 0.01 0.02 0.02 0.03 0.03 0.04 0.04 0.04 0.04 0.03 0.03
0.00 0.00 0.00 0.00 0.00 0.00 0.00 0.00 0.00 0.00 0.00 0.00 0.00 0.00 0.00 0.00 0.00 0.00 0.00 0.00 0.00 0.00 0.00 0.01 0.01 0.01 0.02 0.03 0.02 0.02 0.01 0.01 0.02 0.03 0.03 0.03 0.03 0.04 0.04 0.04 0.04 0.03 0.02
0.00 0.00 0.00 0.00 0.00 0.00 0.00 0.00 0.00 0.00 0.00 0.00 0.00 0.00 0.00 0.00 0.00 0.00 0.00 0.00 0.00 0.00 0.00 0.01 0.02 0.02 0.04 0.05 0.05 0.04 0.02 0.01 0.01 0.02 0.02 0.02 0.03 0.05 0.05 0.04 0.03 0.02 0.01
0.00 0.00 0.00 0.00 0.00 0.00 0.00 0.00 0.00 0.00 0.00 0.00 0.00 0.00 0.00 0.00 0.00 0.00 0.00 0.00 0.00 0.00 0.00 0.01 0.02 0.03 0.03 0.04 0.05 0.07 0.07 0.05 0.03 0.03 0.07 0.08 0.06 0.05 0.04 0.03 0.02 0.02 0.01
0.00 0.00 0.00 0.00 0.00 0.00 0.00 0.00 0.00 0.00 0.00 0.00 0.00 0.00 0.00 0.00 0.00 0.00 0.00 0.00 0.00 0.00 0.00 0.01 0.03 0.03 0.03 0.04 0.05 0.06 0.07 0.07 0.10 0.14 0.15 0.12 0.06 0.03 0.03 0.02 0.02 0.03 0.02
0.00 0.00 0.00 0.00 0.00 0.00 0.00 0.00 0.00 0.00 0.00 0.00 0.00 0.00 0.00 0.00 0.00 0.00 0.00 0.00 0.00 0.00 0.00 0.01 0.03 0.04 0.04 0.04 0.05 0.05 0.05 0.07 0.11 0.10 0.07 0.04 0.03 0.02 0.02 0.02 0.02 0.02 0.02
0.00 0.00 0.00 0.00 0.00 0.00 0.00 0.00 0.00 0.00 0.00 0.00 0.00 0.00 0.01 0.01 0.01 0.00 0.00 0.00 0.00 0.00 0.00 0.01 0.03 0.04 0.04 0.04 0.04 0.04 0.07 0.07 0.06 0.03 0.02 0.02 0.01 0.01 0.01 0.01 0.01 0.01 0.01
MSLP
1014.20 1014.77 1015.32 1015.82 1016.27 1016.64 1016.95 1017.20 1017.40 1017.56 1017.67 1017.72 1017.70 1017.61 1017.43 1017.19 1016.91 1016.60 1016.31 1016.06 1015.86 1015.70 1015.55 1015.40 1015.18 1014.87 1014.44 1013.86 1013.17 1012.39 1011.56 1010.73 1009.93 1009.20 1008.55 1007.99 1007.49 1007.02 1006.57 1006.09 1005.57 1005.01 1004.41
1014.63 1015.17 1015.68 1016.14 1016.54 1016.88 1017.16 1017.38 1017.55 1017.68 1017.75 1017.76 1017.70 1017.55 1017.34 1017.06 1016.74 1016.40 1016.08 1015.78 1015.54 1015.33 1015.15 1014.95 1014.70 1014.37 1013.92 1013.36 1012.68 1011.92 1011.10 1010.28 1009.47 1008.72 1008.02 1007.40 1006.82 1006.28 1005.74 1005.20 1004.63 1004.03 1003.40
1015.03 1015.56 1016.03 1016.46 1016.82 1017.12 1017.36 1017.55 1017.68 1017.77 1017.80 1017.77 1017.66 1017.48 1017.22 1016.91 1016.55 1016.18 1015.83 1015.50 1015.21 1014.96 1014.72 1014.47 1014.19 1013.83 1013.37 1012.80 1012.14 1011.39 1010.59 1009.78 1008.97 1008.19 1007.47 1006.79 1006.14 1005.53 1004.92 1004.31 1003.68 1003.04 1002.38
1015.39 1015.91 1016.36 1016.75 1017.08 1017.34 1017.55 1017.69 1017.79 1017.84 1017.83 1017.76 1017.61 1017.39 1017.10 1016.76 1016.37 1015.97 1015.58 1015.21 1014.88 1014.58 1014.29 1013.99 1013.66 1013.26 1012.79 1012.22 1011.56 1010.83 1010.05 1009.24 1008.44 1007.65 1006.90 1006.18 1005.49 1004.82 1004.16 1003.49 1002.81 1002.11 1001.41
1015.70 1016.21 1016.65 1017.02 1017.31 1017.54 1017.71 1017.83 1017.90 1017.91 1017.87 1017.76 1017.58 1017.32 1017.00 1016.63 1016.21 1015.78 1015.35 1014.94 1014.56 1014.20 1013.86 1013.51 1013.13 1012.69 1012.19 1011.61 1010.95 1010.23 1009.47 1008.68 1007.89 1007.11 1006.35 1005.61 1004.89 1004.19 1003.48 1002.76 1002.04 1001.29 1000.54
1015.96 1016.48 1016.90 1017.25 1017.51 1017.72 1017.87 1017.96 1018.00 1017.99 1017.92 1017.78 1017.57 1017.28 1016.93 1016.52 1016.07 1015.61 1015.14 1014.68 1014.25 1013.83 1013.43 1013.02 1012.59 1012.12 1011.59 1010.99 1010.33 1009.62 1008.87 1008.10 1007.33 1006.56 1005.81 1005.08 1004.35 1003.63 1002.90 1002.15 1001.38 1000.60 999.79
1016.19 1016.69 1017.10 1017.43 1017.68 1017.87 1018.00 1018.08 1018.10 1018.07 1017.98 1017.82 1017.58 1017.27 1016.88 1016.44 1015.95 1015.44 1014.93 1014.42 1013.93 1013.46 1013.00 1012.54 1012.05 1011.53 1010.97 1010.36 1009.70 1009.00 1008.26 1007.52 1006.77 1006.02 1005.29 1004.56 1003.85 1003.12 1002.38 1001.62 1000.83 1000.01 999.16
1016.40 1016.88 1017.26 1017.57 1017.81 1017.98 1018.11 1018.18 1018.20 1018.16 1018.05 1017.87 1017.61 1017.26 1016.84 1016.36 1015.84 1015.28 1014.71 1014.15 1013.61 1013.08 1012.56 1012.04 1011.51 1010.95 1010.36 1009.73 1009.06 1008.36 1007.65 1006.92 1006.19 1005.47 1004.76 1004.05 1003.35 1002.63 1001.90 1001.13 1000.32 999.48 998.59
1016.60 1017.04 1017.40 1017.68 1017.90 1018.07 1018.19 1018.26 1018.28 1018.23 1018.11 1017.91 1017.62 1017.24 1016.78 1016.26 1015.69 1015.08 1014.47 1013.86 1013.26 1012.67 1012.10 1011.54 1010.96 1010.37 1009.76 1009.11 1008.44 1007.75 1007.04 1006.33 1005.62 1004.91 1004.22 1003.52 1002.83 1002.12 1001.38 1000.62 999.81 998.95 998.04
1016.81 1017.20 1017.52 1017.78 1017.98 1018.14 1018.26 1018.32 1018.33 1018.27 1018.13 1017.91 1017.58 1017.17 1016.67 1016.10 1015.48 1014.84 1014.18 1013.52 1012.88 1012.26 1011.65 1011.04 1010.44 1009.83 1009.20 1008.54 1007.87 1007.18 1006.48 1005.77 1005.06 1004.36 1003.67 1002.97 1002.27 1001.56 1000.82 1000.04 999.23 998.36 997.46
1017.03 1017.37 1017.66 1017.88 1018.07 1018.21 1018.31 1018.36 1018.35 1018.27 1018.10 1017.84 1017.47 1017.02 1016.48 1015.87 1015.21 1014.53 1013.84 1013.15 1012.48 1011.83 1011.20 1010.58 1009.97 1009.35 1008.71 1008.05 1007.38 1006.69 1005.99 1005.28 1004.56 1003.85 1003.14 1002.42 1001.70 1000.96 1000.19 999.40 998.57 997.71 996.80
1017.28 1017.57 1017.81 1018.01 1018.17 1018.29 1018.37 1018.39 1018.35 1018.22 1018.01 1017.70 1017.29 1016.79 1016.20 1015.56 1014.87 1014.16 1013.45 1012.76 1012.08 1011.43 1010.80 1010.18 1009.57 1008.95 1008.32 1007.67 1007.00 1006.31 1005.61 1004.89 1004.15 1003.41 1002.66 1001.91 1001.14 1000.35 999.55 998.72 997.87 997.00 996.09
1017.55 1017.81 1018.01 1018.18 1018.30 1018.39 1018.43 1018.41 1018.32 1018.14 1017.87 1017.50 1017.04 1016.49 1015.86 1015.19 1014.48 1013.77 1013.06 1012.37 1011.71 1011.07 1010.46 1009.87 1009.27 1008.67 1008.06 1007.42 1006.76 1006.07 1005.36 1004.62 1003.86 1003.09 1002.29 1001.48 1000.65 999.81 998.95 998.07 997.18 996.28 995.38
1017.85 1018.07 1018.24 1018.37 1018.47 1018.51 1018.50 1018.43 1018.28 1018.03 1017.70 1017.27 1016.74 1016.15 1015.49 1014.79 1014.08 1013.37 1012.68 1012.02 1011.39 1010.79 1010.21 1009.65 1009.08 1008.51 1007.92 1007.29 1006.64 1005.96 1005.24 1004.49 1003.70 1002.89 1002.04 1001.17 1000.28 999.37 998.44 997.51 996.57 995.65 994.73
1018.14 1018.33 1018.48 1018.58 1018.64 1018.64 1018.58 1018.44 1018.22 1017.91 1017.51 1017.01 1016.44 1015.80 1015.12 1014.41 1013.71 1013.02 1012.37 1011.74 1011.15 1010.60 1010.06 1009.53 1009.00 1008.45 1007.88 1007.27 1006.63 1005.94 1005.22 1004.45 1003.65 1002.80 1001.92 1000.99 1000.04 999.07 998.08 997.10 996.12 995.16 994.22
1018.41 1018.57 1018.69 1018.77 1018.79 1018.75 1018.64 1018.45 1018.16 1017.78 1017.32 1016.77 1016.15 1015.48 1014.79 1014.09 1013.41 1012.75 1012.14 1011.56 1011.02 1010.50 1010.00 1009.51 1009.00 1008.46 1007.90 1007.30 1006.65 1005.97 1005.24 1004.46 1003.64 1002.77 1001.86 1000.91 999.92 998.91 997.88 996.85 995.84 994.85 993.91
1018.61 1018.75 1018.86 1018.91 1018.90 1018.82 1018.67 1018.42 1018.08 1017.65 1017.14 1016.55 1015.90 1015.22 1014.53 1013.85 1013.20 1012.58 1012.01 1011.48 1010.98 1010.50 1010.02 1009.54 1009.04 1008.50 1007.93 1007.32 1006.66 1005.96 1005.21 1004.43 1003.60 1002.72 1001.80 1000.84 999.84 998.82 997.78 996.74 995.72 994.73 993.79
1018.73 1018.86 1018.94 1018.97 1018.94 1018.83 1018.64 1018.36 1017.98 1017.52 1016.97 1016.36 1015.70 1015.02 1014.35 1013.70 1013.08 1012.51 1011.98 1011.49 1011.02 1010.56 1010.09 1009.60 1009.08 1008.52 1007.92 1007.27 1006.58 1005.85 1005.08 1004.28 1003.44 1002.57 1001.66 1000.71 999.73 998.73 997.72 996.71 995.71 994.75 993.83
1018.77 1018.87 1018.94 1018.95 1018.90 1018.78 1018.56 1018.26 1017.86 1017.37 1016.81 1016.20 1015.55 1014.89 1014.25 1013.63 1013.05 1012.52 1012.03 1011.56 1011.11 1010.65 1010.17 1009.65 1009.09 1008.48 1007.82 1007.12 1006.37 1005.59 1004.79 1003.96 1003.11 1002.24 1001.35 1000.44 999.51 998.56 997.61 996.66 995.72 994.82 993.96
1018.74 1018.82 1018.87 1018.86 1018.80 1018.66 1018.44 1018.12 1017.71 1017.23 1016.67 1016.07 1015.44 1014.81 1014.20 1013.62 1013.08 1012.59 1012.12 1011.67 1011.21 1010.74 1010.22 1009.66 1009.04 1008.36 1007.62 1006.83 1006.01 1005.17 1004.31 1003.45 1002.59 1001.72 1000.86 999.99 999.13 998.25 997.39 996.52 995.68 994.87 994.10
1018.68 1018.73 1018.76 1018.74 1018.66 1018.51 1018.28 1017.96 1017.56 1017.08 1016.54 1015.95 1015.35 1014.76 1014.19 1013.65 1013.14 1012.67 1012.22 1011.77 1011.30 1010.79 1010.23 1009.60 1008.90 1008.13 1007.30 1006.42 1005.52 1004.60 1003.68 1002.77 1001.89 1001.02 1000.19 999.37 998.57 997.79 997.03 996.28 995.55 994.86 994.21
1018.61 1018.64 1018.65 1018.61 1018.53 1018.37 1018.13 1017.81 1017.41 1016.94 1016.41 1015.86 1015.29 1014.73 1014.19 1013.68 1013.20 1012.74 1012.29 1011.83 1011.33 1010.78 1010.16 1009.46 1008.68 1007.81 1006.89 1005.92 1004.92 1003.92 1002.94 1001.99 1001.08 1000.21 999.40 998.63 997.90 997.21 996.56 995.93 995.34 994.78 994.25
1018.58 1018.59 1018.57 1018.52 1018.41 1018.24 1017.99 1017.67 1017.27 1016.81 1016.30 1015.77 1015.23 1014.70 1014.18 1013.70 1013.23 1012.78 1012.32 1011.83 1011.30 1010.69 1010.01 1009.23 1008.37 1007.42 1006.41 1005.35 1004.28 1003.21 1002.17 1001.18 1000.25 999.38 998.59 997.87 997.21 996.61 996.06 995.55 995.08 994.65 994.25
1018.60 1018.58 1018.54 1018.47 1018.34 1018.15 1017.88 1017.55 1017.15 1016.70 1016.21 1015.69 1015.17 1014.66 1014.17 1013.69 1013.23 1012.77 1012.29 1011.76 1011.18 1010.52 1009.77 1008.93 1007.99 1006.97 1005.89 1004.78 1003.64 1002.53 1001.45 1000.44 999.50 998.64 997.87 997.20 996.60 996.07 995.61 995.21 994.86 994.55 994.27
1018.65 1018.61 1018.55 1018.45 1018.29 1018.07 1017.79 1017.45 1017.05 1016.60 1016.12 1015.62 1015.12 1014.62 1014.14 1013.67 1013.19 1012.71 1012.19 1011.63 1010.99 1010.27 1009.46 1008.55 1007.56 1006.49 1005.37 1004.21 1003.06 1001.92 1000.84 999.83 998.90 998.07 997.34 996.70 996.16 995.71 995.33 995.01 994.75 994.54 994.36
1018.71 1018.65 1018.56 1018.43 1018.25 1018.00 1017.70 1017.35 1016.94 1016.50 1016.03 1015.55 1015.06 1014.57 1014.09 1013.61 1013.12 1012.60 1012.04 1011.42 1010.73 1009.95 1009.08 1008.12 1007.08 1005.98 1004.84 1003.68 1002.53 1001.42 1000.37 999.39 998.50 997.71 997.03 996.45 995.97 995.57 995.25 995.00 994.81 994.67 994.57
Thickness
5589 5585 5580 5573 5566 5560 5554 5549 5544 5539 5534 5529 5523 5518 5513 5508 5502 5495 5487 5480 5473 5466 5458 5451 5442 5433 5425 5416 5406 5397 5385 5370 5364 5378 5372 5356 5339 5327 5320 5310 5301 5293 5288
5578 5574 5568 5561 5555 5549 5544 5539 5534 5528 5523 5518 5512 5507 5502 5497 5489 5481 5474 5467 5459 5452 5444 5434 5424 5416 5405 5394 5383 5372 5360 5345 5330 5329 5336 5326 5317 5308 5303 5298 5293 5286 5276
5568 5562 5555 5550 5544 5539 5534 5529 5524 5518 5512 5507 5501 5495 5490 5483 5475 5468 5460 5454 5446 5438 5428 5416 5406 5395 5385 5372 5359 5346 5334 5321 5304 5294 5300 5301 5300 5294 5287 5286 5283 5276 5266
5558 5551 5545 5540 5534 5529 5524 5519 5513 5507 5501 5495 5489 5482 5475 5468 5461 5455 5448 5441 5433 5422 5411 5398 5385 5373 5360 5347 5335 5320 5304 5293 5285 5278 5279 5282 5281 5276 5269 5268 5271 5266 5258
5548 5541 5535 5530 5524 5519 5514 5508 5502 5496 5490 5483 5476 5468 5460 5453 5448 5442 5437 5429 5418 5407 5394 5379 5366 5352 5338 5322 5306 5290 5278 5271 5268 5264 5263 5264 5263 5259 5255 5253 5253 5257 5256
5539 5532 5526 5520 5514 5508 5502 5496 5490 5484 5477 5469 5461 5453 5445 5439 5434 5429 5422 5414 5402 5388 5375 5361 5346 5331 5314 5298 5281 5268 5260 5253 5248 5244 5243 5242 5244 5243 5242 5242 5242 5244 5249
5529 5523 5517 5510 5503 5497 5491 5484 5478 5470 5462 5454 5445 5437 5430 5423 5420 5414 5406 5396 5382 5367 5353 5339 5325 5308 5290 5273 5264 5257 5248 5239 5230 5223 5225 5228 5230 5232 5233 5236 5234 5233 5235
5519 5513 5506 5499 5492 5485 5478 5472 5464 5456 5447 5438 5430 5423 5416 5410 5406 5399 5390 5376 5361 5346 5330 5314 5299 5285 5271 5260 5253 5244 5234 5224 5216 5216 5217 5220 5223 5226 5227 5229 5229 5232 5234
5509 5502 5495 5488 5481 5474 5466 5459 5451 5442 5433 5425 5417 5410 5403 5397 5390 5382 5373 5359 5344 5328 5311 5293 5277 5266 5258 5250 5239 5230 5222 5217 5216 5215 5216 5218 5222 5224 5225 5227 5229 5230 5234
5498 5491 5485 5478 5470 5462 5454 5446 5437 5428 5420 5413 5406 5397 5390 5381 5373 5364 5351 5339 5327 5314 5297 5279 5264 5253 5246 5238 5229 5221 5216 5217 5218 5219 5219 5220 5223 5224 5226 5225 5224 5227 5232
5488 5481 5474 5466 5458 5450 5441 5431 5423 5416 5409 5403 5395 5386 5376 5366 5356 5343 5329 5315 5301 5291 5280 5268 5255 5246 5238 5231 5225 5218 5217 5221 5220 5219 5222 5225 5227 5228 5228 5227 5226 5226 5230
5476 5469 5461 5453 5445 5437 5427 5419 5412 5405 5398 5391 5384 5374 5362 5349 5337 5325 5312 5296 5282 5270 5262 5253 5244 5237 5230 5226 5222 5221 5222 5222 5219 5221 5224 5228 5229 5230 5231 5232 5232 5231 5232
5463 5455 5447 5439 5430 5422 5414 5408 5402 5395 5387 5381 5372 5362 5351 5336 5320 5308 5295 5282 5270 5259 5251 5243 5235 5229 5225 5222 5222 5224 5223 5220 5221 5223 5226 5228 5230 5233 5235 5237 5239 5239 5240
5449 5441 5433 5424 5417 5410 5403 5397 5390 5382 5375 5368 5359 5349 5336 5321 5306 5295 5282 5270 5262 5252 5244 5236 5230 5225 5222 5222 5223 5223 5221 5221 5222 5224 5226 5230 5233 5236 5238 5240 5242 5245 5247
5436 5429 5420 5413 5406 5399 5392 5384 5378 5369 5361 5353 5342 5329 5318 5307 5293 5280 5268 5261 5253 5245 5240 5232 5228 5225 5223 5223 5223 5223 5224 5224 5225 5226 5228 5231 5234 5237 5239 5242 5244 5247 5249
5425 5417 5409 5402 5395 5388 5380 5372 5365 5356 5346 5334 5322 5309 5297 5285 5277 5267 5259 5250 5242 5238 5232 5227 5224 5222 5222 5223 5223 5224 5225 5225 5226 5226 5228 5230 5233 5236 5240 5244 5247 5250 5253
5413 5406 5399 5391 5384 5377 5369 5361 5351 5341 5328 5316 5304 5292 5280 5270 5261 5255 5248 5241 5234 5231 5226 5224 5222 5222 5222 5222 5222 5223 5225 5226 5226 5226 5228 5230 5232 5236 5240 5245 5249 5253 5255
5402 5396 5388 5380 5373 5365 5357 5348 5338 5328 5316 5302 5288 5276 5266 5256 5250 5244 5239 5233 5228 5226 5224 5223 5221 5221 5221 5222 5222 5223 5225 5226 5226 5226 5228 5230 5232 5236 5241 5246 5250 5253 5257
5391 5384 5377 5369 5361 5353 5344 5334 5323 5312 5301 5289 5277 5265 5255 5248 5240 5234 5230 5226 5224 5224 5223 5221 5220 5220 5220 5221 5221 5222 5223 5225 5226 5226 5229 5231 5233 5237 5241 5246 5251 5255 5259
5380 5375 5368 5358 5349 5339 5329 5319 5308 5297 5285 5274 5263 5255 5249 5243 5235 5229 5225 5223 5222 5222 5221 5220 5221 5220 5220 5220 5221 5222 5223 5225 5227 5228 5230 5232 5235 5238 5242 5247 5252 5254 5257
5369 5361 5356 5345 5335 5325 5314 5303 5292 5281 5270 5259 5248 5241 5239 5232 5226 5223 5222 5221 5221 5220 5219 5220 5220 5221 5221 5221 5221 5222 5222 5225 5227 5230 5232 5235 5237 5240 5244 5249 5252 5254 5256
5358 5350 5342 5332 5322 5311 5301 5289 5277 5266 5255 5246 5238 5232 5228 5223 5221 5220 5220 5220 5220 5219 5219 5219 5221 5222 5222 5222 5222 5223 5225 5228 5232 5235 5237 5240 5242 5245 5249 5251 5252 5253 5255
5347 5338 5329 5318 5307 5298 5285 5273 5263 5253 5242 5234 5228 5225 5221 5219 5218 5218 5219 5219 5220 5220 5221 5221 5223 5225 5226 5226 5227 5228 5231 5235 5238 5241 5244 5248 5252 5254 5253 5252 5252 5253 5255
5335 5325 5315 5304 5293 5282 5271 5260 5249 5240 5231 5225 5219 5217 5216 5217 5218 5219 5219 5220 5222 5223 5224 5225 5227 5229 5231 5233 5236 5239 5242 5246 5250 5255 5259 5261 5259 5257 5256 5255 5255 5255 5255
5320 5310 5299 5288 5278 5267 5257 5246 5236 5227 5221 5215 5212 5211 5213 5215 5217 5219 5221 5223 5224 5226 5229 5231 5233 5235 5238 5242 5246 5251 5256 5262 5267 5269 5267 5265 5264 5262 5261 5260 5259 5259 5257
5305 5295 5285 5274 5263 5253 5243 5233 5225 5218 5212 5208 5207 5209 5212 5215 5219 5221 5224 5226 5228 5231 5234 5237 5239 5241 5245 5250 5257 5263 5269 5275 5276 5274 5273 5271 5270 5269 5268 5266 5264 5263 5260